1354396869671279,  0.01904858707, -0.00808906720,  0.00024457752, -0.00001013575,  0.00000865651, -0.00037700513,  0.01801857040,  0.00029777962,  0.00000081791,  0.00000139550,  0.00019950725,  0.05199521903,  0.00134533723,  0.00038615016,  0.00000351009,  0.00012045100, -0.00000240340, -0.00000004567,  0.00009370678, -0.00000011739,  0.00005895855
1354396914466546,  0.01606683137, -0.00744983934,  0.00024944712, -0.00002168583, -0.00001646471, -0.00026466482,  0.01841253720,  0.00018028730,  0.00001290541, -0.00000093243,  0.00022557685,  0.04117461568, -0.00023936554,  0.00103814568, -0.00000985597,  0.00006836240, -0.00000494005, -0.00000023696,  0.00010279799, -0.00000030183,  0.00004295544
1354396918266170,  0.01444099416, -0.00601455575,  0.00030751859, -0.00000156571, -0.00000556683, -0.00019180499,  0.01707784112,  0.00034866911, -0.00000289661,  0.00000114422,  0.00016254908,  0.03374824117, -0.00053381620,  0.00057835109,  0.00000977149,  0.00007948546, -0.00001798546, -0.00000113903,  0.00007646008,  0.00000100095,  0.00003482027
1354396921865773,  0.01430393509, -0.00504573182,  0.00032054332,  0.00000005126,  0.00000007608, -0.00013864366,  0.01690466460,  0.00048703022, -0.00001005942,  0.00000848655,  0.00015424862,  0.02986200941, -0.00038854945,  0.00048881158,  0.00001811751,  0.00039608092, -0.00002025703,  0.00001430443,  0.00040382091,  0.00000190410,  0.00035855682
1354396925265407,  0.01297077045, -0.00490075793,  0.00033906074,  0.00001557225,  0.00000216030, -0.00018290772,  0.01453318648,  0.00045176367, -0.00003155924,  0.00001143496,  0.00034343240,  0.02403432274, -0.00004473414,  0.00059675915, -0.00000210195,  0.00032748359, -0.00005511494,  0.00000433134,  0.00017703270, -0.00000097319,  0.00013386187
1354396929464969,  0.01140120154, -0.00405660494,  0.00031075478,  0.00000610069,  0.00000694847, -0.00003494851,  0.01191817358,  0.00039961540, -0.00002235324,  0.00000035440,  0.00019866812,  0.01946587139, -0.00013136757,  0.00018933335, -0.00000388618,  0.00006801920, -0.00000385518,  0.00000102252,  0.00004641264,  0.00000048272,  0.00003104929
1354396933464641,  0.01136628860, -0.00394068807,  0.00026971012,  0.00000214504,  0.00001015410, -0.00003047967,  0.01012839537,  0.00047926739, -0.00002911335, -0.00001301090,  0.00016129194,  0.01867649077, -0.00021752009,  0.00001028866, -0.00001445911,  0.00006227760,  0.00000461159,  0.00000170128,  0.00003774075,  0.00000073651,  0.00002484312
1354396937064167,  0.01138911728, -0.00386392538,  0.00022397081,  0.00000197751,  0.00001079110, -0.00003354520,  0.00868698426,  0.00058214288, -0.00003144003, -0.00001588248,  0.00013124476,  0.01870749641, -0.00023908686, -0.00005999857, -0.00001756231,  0.00006059943,  0.00000520293,  0.00000192364,  0.00003593931,  0.00000075881,  0.00002345903
1354396940663958,  0.01153438209, -0.00388261338,  0.00018523969, -0.00000213190,  0.00001114171, -0.00004998505,  0.00752444860,  0.00075934260, -0.00002796548, -0.00002817099,  0.00011173677,  0.02011416893, -0.00025636691, -0.00022533715, -0.00002145156,  0.00005386351,  0.00001193828,  0.00000170740,  0.00004315794,  0.00000116176,  0.00002514323
1354397084448644,  0.01178774473, -0.00384855988,  0.00016425059, -0.00000125420,  0.00001103038, -0.00007104565,  0.00662825119,  0.00094477536, -0.00003331553, -0.00002481715,  0.00009588948,  0.02258172052, -0.00037455167, -0.00025171815, -0.00002465295,  0.00005677172,  0.00001090619,  0.00000198873,  0.00003816194,  0.00000092648,  0.00002495618
1354397101046899,  0.01198355698, -0.00356879616,  0.00013893510,  0.00000305899,  0.00000979295, -0.00008578869,  0.00577722209,  0.00111006715, -0.00004225284, -0.00001393412,  0.00007373836,  0.02518362004, -0.00050694258, -0.00017968904, -0.00003740367,  0.00006408975,  0.00000783229,  0.00000294888,  0.00003434538,  0.00000073064,  0.00002646568
1354397104646522,  0.01175772243, -0.00312319423,  0.00009588658,  0.00001105336,  0.00001057394, -0.00008311970,  0.00514745488,  0.00114844792, -0.00004711658,  0.00000006644,  0.00005568059,  0.02568905296, -0.00053962214, -0.00000619985, -0.00006492999,  0.00006167850,  0.00000154163,  0.00000459010,  0.00002924484,  0.00000036965,  0.00002547160
1354397108446132,  0.01133888030, -0.00265477345,  0.00010814484,  0.00000762025,  0.00000451055, -0.00007872543,  0.00466221401,  0.00099555713, -0.00003504414,  0.00001133429,  0.00004653694,  0.02506772505, -0.00049518203,  0.00013477919, -0.00005037195,  0.00006028085, -0.00000305476,  0.00000461868,  0.00002714926, -0.00000033811,  0.00002307460
1354397112245723,  0.01081433054, -0.00228000761,  0.00011675176,  0.00000147428,  0.00000326977, -0.00006764300,  0.00436770986,  0.00081179998, -0.00002108430,  0.00001542265,  0.00004365925,  0.02326531503, -0.00038098813,  0.00023728260, -0.00001839973,  0.00005797704, -0.00000911279,  0.00000288749,  0.00002976193, -0.00000057410,  0.00002227925
1354397115845407,  0.01030722818, -0.00196391738,  0.00010618917,  0.00000122861,  0.00000225365, -0.00005499083,  0.00414851715,  0.00067327089, -0.00001822003,  0.00001155114,  0.00004114179,  0.02127304115, -0.00032985337,  0.00017219208, -0.00002041794,  0.00005814862, -0.00000578017,  0.00000304634,  0.00002797515, -0.00000041293,  0.00002192703
1354397119444963,  0.00990642812, -0.00169358180,  0.00009835993, -0.00000067200,  0.00000136443, -0.00004309246,  0.00394757696,  0.00057726472, -0.00001377465,  0.00000979061,  0.00003700098,  0.01982655481, -0.00027772944,  0.00013922548, -0.00000937000,  0.00005686632, -0.00000537691,  0.00000218378,  0.00002934543, -0.00000025947,  0.00002318245
1354397122844604,  0.00958285174, -0.00145326653,  0.00010204642, -0.00000074267,  0.00000038587, -0.00003645892,  0.00375923220,  0.00049827884, -0.00001249346,  0.00000661346,  0.00003397597,  0.01879720011, -0.00024697218,  0.00008360261, -0.00001533624,  0.00005755399, -0.00000226367,  0.00000277002,  0.00002812017, -0.00000018946,  0.00002310612
1354397126444226,  0.00930272378, -0.00122946434,  0.00011228532, -0.00000038744, -0.00000067752, -0.00003041300,  0.00357222864,  0.00043836306, -0.00001145413,  0.00000509548,  0.00002969582,  0.01809451035, -0.00021268240,  0.00005784177, -0.00002674616,  0.00005668102, -0.00000284841,  0.00000396478,  0.00002809976, -0.00000048819,  0.00002348752
1354397130043872,  0.00907312047, -0.00104241776,  0.00012027573, -0.00000154970, -0.00000155725, -0.00002713613,  0.00341068478,  0.00040652759, -0.00000960668,  0.00000277384,  0.00002835683,  0.01772610413, -0.00019450757,  0.00000388285, -0.00001690137,  0.00005609920, -0.00000060896,  0.00000336492,  0.00002783952, -0.00000017877,  0.00002320667
1354397133643500,  0.00889360447, -0.00086520023,  0.00015385214, -0.00000222634, -0.00000355313, -0.00002896414,  0.00323849672,  0.00039185707, -0.00000834638, -0.00000114835,  0.00002344347,  0.01808018577, -0.00019380097, -0.00008138144, -0.00001943293,  0.00005500754,  0.00000366866,  0.00000358498,  0.00003193871,  0.00000039104,  0.00002532499
1354397137243093,  0.00876910897, -0.00069165137,  0.00023752039, -0.00000314117, -0.00000861977, -0.00003737615,  0.00308999147,  0.00039053388, -0.00000376204, -0.00000410738,  0.00001107669,  0.01942678881, -0.00019510983, -0.00019616733, -0.00002424959,  0.00004817300,  0.00000828194,  0.00000323891,  0.00003419331,  0.00000126608,  0.00002302376
1354397140842739,  0.00871225013, -0.00048020506,  0.00032106247, -0.00000530577, -0.00000947019, -0.00005547184,  0.00301377037,  0.00042765059, -0.00000317505, -0.00000545415,  0.00000418833,  0.02173319655, -0.00024487515, -0.00025938706, -0.00002014284,  0.00003153684,  0.00000574967,  0.00000087651,  0.00003040875,  0.00000080865,  0.00001508636
1354397146842079,  0.00832424030, -0.00034745620,  0.00029251168, -0.00001032789,  0.00000480070, -0.00004912101,  0.00302284783,  0.00045933061, -0.00000681286,  0.00000364420, -0.00000780225,  0.02181010369, -0.00030121294,  0.00021975004, -0.00000432920,  0.00004204346, -0.00000889736,  0.00000035662,  0.00002809733, -0.00000007194,  0.00001970030
1354397150641679,  0.00791650577, -0.00037568100,  0.00022887693, -0.00000862807,  0.00000465037, -0.00004266031,  0.00302795752,  0.00044250155, -0.00000670264,  0.00000385766, -0.00000538267,  0.02015880895, -0.00027549441,  0.00017332574,  0.00000699417,  0.00004912401, -0.00000493710, -0.00000033562,  0.00002486946,  0.00000018751,  0.00001957891
1354397154041326,  0.00754508591, -0.00040624164,  0.00021420178, -0.00000799134,  0.00000487491, -0.00004314752,  0.00303308872,  0.00040243320, -0.00000558025,  0.00000271251, -0.00000545652,  0.01876289193, -0.00024541589,  0.00014443953, -0.00000066591,  0.00005348677, -0.00000290548,  0.00000023303,  0.00002624200,  0.00000008076,  0.00002210551
1354397157840921,  0.00716827928, -0.00044192535,  0.00018258019, -0.00000804419,  0.00000347665, -0.00003525288,  0.00302333221,  0.00037173941, -0.00000473465,  0.00000202742, -0.00000464016,  0.01738997558, -0.00020744873,  0.00012170605, -0.00000188951,  0.00005349584, -0.00000284908, -0.00000013955,  0.00002379614, -0.00000001128,  0.00002026473
1354397161440570,  0.00684532054, -0.00046314023,  0.00013818067, -0.00000590725,  0.00000247189, -0.00003000010,  0.00302074458,  0.00035851549, -0.00000467010,  0.00000241468, -0.00000540385,  0.01633957016, -0.00018264395,  0.00010541679,  0.00000143388,  0.00005413257, -0.00000262192, -0.00000094035,  0.00002327363,  0.00000000834,  0.00002036434
1354397165040168,  0.00657385099, -0.00050090062,  0.00010124004, -0.00000363689,  0.00000254986, -0.00002462885,  0.00301009912,  0.00033508931, -0.00000331629,  0.00000330542, -0.00000178155,  0.01519980374, -0.00012353685,  0.00011561096,  0.00000277509,  0.00005195084, -0.00000740697, -0.00000150313,  0.00002471094,  0.00000032667,  0.00002051385
1354397168639785,  0.00636259956, -0.00052176180,  0.00006644072, -0.00000055422,  0.00000167889, -0.00002000226,  0.00300585816,  0.00031931440, -0.00000353763,  0.00000338253, -0.00000031885,  0.01433694657, -0.00011590272,  0.00008173646,  0.00000398937,  0.00005352245, -0.00000142282, -0.00000166277,  0.00002258902,  0.00000003722,  0.00002044516
1354397172239411,  0.00619459079, -0.00053677783,  0.00004050273,  0.00000279989,  0.00000096370, -0.00001496965,  0.00299989133,  0.00029919116, -0.00000282229,  0.00000433172,  0.00000080730,  0.01355093853, -0.00008572512,  0.00008264937,  0.00000279868,  0.00005212020, -0.00000368768, -0.00000117322,  0.00002277879,  0.00000014931,  0.00002032173
1354397175839035,  0.00607144831, -0.00054530893,  0.00003041931,  0.00000286421,  0.00000057587, -0.00001160185,  0.00299135885,  0.00026720927, -0.00000231719,  0.00000416940,  0.00000111003,  0.01281581304, -0.00006793151,  0.00007899006,  0.00000031852,  0.00005048770, -0.00000352488, -0.00000013750,  0.00002464267,  0.00000003659,  0.00002212887
1354397179438653,  0.00599273973, -0.00055110763,  0.00002362566,  0.00000319624,  0.00000055759, -0.00000716171,  0.00298295790,  0.00023608944, -0.00000227689,  0.00000389944,  0.00000261820,  0.01211551690, -0.00005585954,  0.00006769679, -0.00000097360,  0.00004842469, -0.00000094271,  0.00000022720,  0.00002379047,  0.00000000039,  0.00002149555
1354397183038277,  0.00594080888, -0.00055053344,  0.00001620248,  0.00000384016,  0.00000055373, -0.00000844979,  0.00297870313,  0.00021128238, -0.00000243636,  0.00000424337,  0.00000229114,  0.01152230533, -0.00005488274,  0.00006379513,  0.00000185259,  0.00004732900,  0.00000047089, -0.00000054792,  0.00002170205, -0.00000000104,  0.00001917559
1354397186637893,  0.00583652500, -0.00055230114,  0.00001417647,  0.00000541777, -0.00000094799, -0.00000639635,  0.00292588823,  0.00018313159, -0.00000117820,  0.00000509883,  0.00000434513,  0.01082082392, -0.00002801078,  0.00006590099,  0.00000043870,  0.00002690318, -0.00000304125, -0.00000000605,  0.00001810817,  0.00000008743,  0.00001256474
1354397190037536,  0.00579958166, -0.00054866477,  0.00002382800,  0.00000425067, -0.00000181006, -0.00000244550,  0.00292189887,  0.00014810797,  0.00000003956,  0.00000447252,  0.00000568199,  0.01025459495, -0.00000584431,  0.00005257472, -0.00000030312,  0.00002258637, -0.00000301968,  0.00000009584,  0.00001877121,  0.00000003029,  0.00001137065
1354397194437071,  0.00586488306, -0.00052875875,  0.00004190512,  0.00000200261, -0.00000446760,  0.00000275645,  0.00303143119,  0.00012495038,  0.00000386756,  0.00000271598,  0.00001326152,  0.01001006383,  0.00003807960, -0.00000102807, -0.00000115071,  0.00003392885,  0.00000076128,  0.00000002193,  0.00002944200,  0.00000027475,  0.00001805471
1354397198036696,  0.00665171695, -0.00035716165,  0.00003856908, -0.00000024740, -0.00000019922,  0.00002884366,  0.00395817410,  0.00010198402, -0.00000270946,  0.00000572392,  0.00003765316,  0.01110705192,  0.00001687982, -0.00006680353, -0.00000193414,  0.00024286725, -0.00001008553,  0.00000675947,  0.00008948658, -0.00000021610,  0.00008135723
1354397201636318,  0.00705359495,  0.00016767154, -0.00003404120, -0.00000689920,  0.00000909450,  0.00007325948,  0.00515630834,  0.00008002754, -0.00001682865,  0.00000596266,  0.00014461032,  0.01289936225,  0.00003702968, -0.00020656287, -0.00000423487,  0.00029168179, -0.00001202671,  0.00000419615,  0.00010161054,  0.00000003949,  0.00009369755
1354397205235934,  0.00767358013,  0.00115132638, -0.00017767815, -0.00001876880,  0.00001248979,  0.00010383459,  0.00757447850,  0.00005041666, -0.00003475409, -0.00000143129,  0.00025418685,  0.01633821314,  0.00014935560, -0.00033004036, -0.00001040522,  0.00034709824,  0.00001098077,  0.00000368755,  0.00010707849,  0.00000051820,  0.00009918369
1354397208835561,  0.00855451448,  0.00249083554, -0.00032004987, -0.00002353021,  0.00001291265,  0.00011616091,  0.01074119588,  0.00000980583, -0.00004284814,  0.00000194417,  0.00030784187,  0.02092576549,  0.00021795102, -0.00041389897, -0.00001269910,  0.00041594634, -0.00000003227, -0.00000196648,  0.00011030993,  0.00000024424,  0.00010180305
1354397212635158,  0.00950940923,  0.00405988275, -0.00052082640, -0.00005825094,  0.00002276628,  0.00011945375,  0.01402047809, -0.00001769405, -0.00012770015,  0.00000205476,  0.00029743423,  0.02599347849,  0.00022151196, -0.00044414549,  0.00001171906,  0.00045474289,  0.00000656994,  0.00001599385,  0.00010941660,  0.00000029498,  0.00010051242
1354397216634752,  0.01038665074,  0.00549124571, -0.00053024351, -0.00003649417,  0.00000191576,  0.00010532086,  0.01683883936, -0.00003963501, -0.00008037957, -0.00001229671,  0.00023685790,  0.03099237957,  0.00020688801, -0.00040994921, -0.00002292904,  0.00048102218,  0.00002225757, -0.00000539945,  0.00010634019,  0.00000006648,  0.00009499876
1354397220434340,  0.01100530391,  0.00646070313, -0.00054104536, -0.00003553745,  0.00000475789,  0.00004405158,  0.01874593046, -0.00008210585, -0.00007795636,  0.00000356769,  0.00012798231,  0.03538737454,  0.00026475036, -0.00035858867, -0.00003614125,  0.00048673673, -0.00004057937, -0.00003531828,  0.00010495061,  0.00000394016,  0.00009336649
1354397224033959,  0.01140393907,  0.00689313268, -0.00046137606, -0.00002943091, -0.00000772815, -0.00001914433,  0.01924629421, -0.00007510083, -0.00006705838, -0.00000818782, -0.00003194281,  0.03831642916,  0.00029339512, -0.00016019801, -0.00002772556,  0.00049212512,  0.00004214457, -0.00003120598,  0.00010374153, -0.00000304438,  0.00009136980
1354397227633580,  0.01151515890,  0.00670961340, -0.00037223360, -0.00002366879, -0.00000827696, -0.00008552275,  0.01837064949, -0.00005553514, -0.00005267363,  0.00000083649, -0.00015936321,  0.04005242241,  0.00034681174, -0.00008559171, -0.00001997077,  0.00048981789, -0.00001464683, -0.00002570737,  0.00010095757,  0.00000104087,  0.00009193256
1354397231033248,  0.01137450758,  0.00602289615, -0.00028705312, -0.00003376985, -0.00000988634, -0.00014454006,  0.01638960587, -0.00003090732, -0.00007589772, -0.00000666701, -0.00028362639,  0.04031392631,  0.00035031957,  0.00006733255, -0.00002665193,  0.00047183223,  0.00001063274, -0.00003522973,  0.00009988025, -0.00000096629,  0.00009284447
1354397234832872,  0.01102407770,  0.00488642660, -0.00018927904, -0.00003024433, -0.00001046429, -0.00017792243,  0.01340434127,  0.00002883722, -0.00006410640, -0.00000155530, -0.00031977305,  0.03988447455,  0.00043064902,  0.00003279887, -0.00003122253,  0.00044003512, -0.00004761740, -0.00003064828,  0.00010878358,  0.00000420183,  0.00009444952
1354397238432471,  0.01057860308,  0.00366781160, -0.00010465516, -0.00003417859, -0.00000858565, -0.00020241171,  0.01043290150,  0.00007224524, -0.00007436324, -0.00000775673, -0.00033535495,  0.03914956632,  0.00046182017,  0.00016165216, -0.00004008114,  0.00040803167,  0.00002155491, -0.00003369793,  0.00010646819, -0.00000221656,  0.00009759442
1354397242032063,  0.00998499741,  0.00232004201, -0.00000125255, -0.00002210963, -0.00001115070, -0.00019122163,  0.00750551357,  0.00016575774, -0.00004674982, -0.00000415895, -0.00027919755,  0.03836093420,  0.00049714013,  0.00011147311, -0.00004959672,  0.00036570817,  0.00001337261, -0.00003228260,  0.00010737906, -0.00000153476,  0.00009834779
1354397245631685,  0.00932025491,  0.00119178099,  0.00010180855, -0.00001187631, -0.00001109301, -0.00015523163,  0.00533126265,  0.00023404803, -0.00002393749,  0.00000044854, -0.00020079217,  0.03801059673,  0.00049622895, -0.00006203774, -0.00004024437,  0.00030248309, -0.00002995786, -0.00002133621,  0.00010905591,  0.00000317363,  0.00009146172
1354397249231310,  0.00882018854,  0.00031479883,  0.00025386269,  0.00000100723, -0.00001358846, -0.00015486421,  0.00380253526,  0.00032897099,  0.00000498514,  0.00000261957, -0.00008997647,  0.03917381996,  0.00068337504, -0.00016479349, -0.00006970764,  0.00020718473, -0.00003605731, -0.00001585645,  0.00008926573,  0.00000466376,  0.00006442966
1354397252830926,  0.00826188637, -0.00023557106,  0.00033989804,  0.00001817993, -0.00000700167, -0.00012496388,  0.00340142626,  0.00033318967,  0.00001040393,  0.00000348580,  0.00000918275,  0.04006826610,  0.00078990093, -0.00000947536, -0.00001690070,  0.00016113542, -0.00002722145, -0.00000294026,  0.00007818951,  0.00000113392,  0.00005573970
1354397257230462,  0.00749698877, -0.00032777346,  0.00030075450,  0.00000797929,  0.00000702912, -0.00007118393,  0.00317192765,  0.00027389654,  0.00000441208,  0.00000403871,  0.00002215802,  0.03733972588,  0.00050555837,  0.00040401651, -0.00001653259,  0.00013722959,  0.00000862186, -0.00000521477,  0.00005595569, -0.00000010103,  0.00004478455
1354397260830084,  0.00675503615, -0.00027697355,  0.00024420112,  0.00000551898,  0.00000642920, -0.00004881674,  0.00281473636,  0.00022763305,  0.00000273867,  0.00000276089,  0.00001049477,  0.03318506132,  0.00039766510,  0.00034130218, -0.00000408062,  0.00005005751,  0.00000294152, -0.00000124493,  0.00003186206,  0.00000038960,  0.00002183743
1354397265029673,  0.00638076346, -0.00022562330,  0.00019991595,  0.00000182623,  0.00000055169, -0.00003873616,  0.00276565553,  0.00019450135,  0.00000288348,  0.00000217140,  0.00000376805,  0.02993038882,  0.00041729749,  0.00019014663, -0.00006362220,  0.00004527582,  0.00000187655, -0.00000288296,  0.00002625754, -0.00000032624,  0.00001968384
1354397268829243,  0.00609693185, -0.00023762850,  0.00026175585,  0.00001010759,  0.00000334379, -0.00003014536,  0.00276261071,  0.00022302473,  0.00000239003,  0.00000492599,  0.00000446808,  0.02803536285,  0.00033724600,  0.00026474127, -0.00001202128,  0.00004835649,  0.00000697323, -0.00000076015,  0.00002759135, -0.00000026703,  0.00001986416
1354397272628842,  0.00586845290, -0.00023082793,  0.00022191533,  0.00000785020,  0.00000150388, -0.00002464596,  0.00274742148,  0.00018408068,  0.00000221015,  0.00000371341, -0.00000022124,  0.02583012069,  0.00033079992,  0.00018582818, -0.00002001955,  0.00005052416,  0.00000263297, -0.00000120528,  0.00002506895, -0.00000014017,  0.00001954886
1354397276228461,  0.00568472870, -0.00024821108,  0.00019245213,  0.00000744759,  0.00000024147, -0.00002022901,  0.00274286581,  0.00015135785,  0.00000206766,  0.00000266321, -0.00000154264,  0.02418971716,  0.00032372451,  0.00012082939, -0.00000050315,  0.00005358541, -0.00000150618, -0.00000016624,  0.00002489640,  0.00000008103,  0.00001985317
1354397279828083,  0.00553668151, -0.00027379083,  0.00018307473,  0.00000634478,  0.00000103747, -0.00001960177,  0.00272793061,  0.00013317182,  0.00000141943,  0.00000272661, -0.00000271754,  0.02286996794,  0.00028461152,  0.00014306256, -0.00000524541,  0.00005316221,  0.00000177640, -0.00000054545,  0.00002404006,  0.00000002751,  0.00001924337
1354397283627685,  0.00538992187, -0.00030802217,  0.00015873441,  0.00000476971,  0.00000076473, -0.00001719670,  0.00271570151,  0.00010760040,  0.00000087521,  0.00000199817, -0.00000573756,  0.02138297905,  0.00024528307,  0.00013705740,  0.00000031183,  0.00005313205,  0.00000389938, -0.00000002036,  0.00002402824,  0.00000002141,  0.00001923713
1354397287227302,  0.00526265003, -0.00035487139,  0.00017033484,  0.00000521991, -0.00000011868, -0.00001767401,  0.00270535838,  0.00010122010,  0.00000116951,  0.00000220809, -0.00000553547,  0.02043904144,  0.00025330023,  0.00007155355, -0.00000716443,  0.00005431237, -0.00000267343, -0.00000079458,  0.00002373814,  0.00000015839,  0.00001943746
1354397290826947,  0.00512719817, -0.00040268384,  0.00015636966,  0.00000411824,  0.00000076884, -0.00001791661,  0.00269768186,  0.00008431281,  0.00000051765,  0.00000182043, -0.00000717402,  0.01942733312,  0.00020903774,  0.00011245765,  0.00000013122,  0.00005421173,  0.00000450176,  0.00000000650,  0.00002390545,  0.00000003077,  0.00001942738
1354397294626556,  0.00498641510, -0.00044422745,  0.00014494996,  0.00000198545,  0.00000088101, -0.00001872152,  0.00270003983,  0.00007020939, -0.00000028813,  0.00000160314, -0.00001197008,  0.01832081765,  0.00016863832,  0.00010251805, -0.00000300284,  0.00005208108,  0.00000611651, -0.00000054046,  0.00002388909, -0.00000005818,  0.00001905063
1354397298226148,  0.00483746939, -0.00049476363,  0.00014637633,  0.00000180432,  0.00000093323, -0.00001986869,  0.00270570853,  0.00006267463, -0.00000032321,  0.00000185665, -0.00001374418,  0.01758310397,  0.00016151885,  0.00006530128, -0.00000195708,  0.00005432610,  0.00000190392, -0.00000070458,  0.00002299997,  0.00000013218,  0.00001946343
1354397301825769,  0.00467415280, -0.00055287958,  0.00014419482,  0.00000123797,  0.00000065863, -0.00002058419,  0.00269536434,  0.00005554789,  0.00000001397,  0.00000119306, -0.00001272242,  0.01711237678,  0.00015729420,  0.00005322775,  0.00000118144,  0.00005467999,  0.00000116035, -0.00000014943,  0.00002290734,  0.00000013232,  0.00001966180
1354397305425407,  0.00450421715, -0.00061125517,  0.00015308324,  0.00000146537,  0.00000050729, -0.00002167533,  0.00267909896,  0.00005335945,  0.00000001951,  0.00000102771, -0.00000974306,  0.01682277977,  0.00016388253,  0.00003835535, -0.00000146542,  0.00005447212, -0.00000064331, -0.00000039201,  0.00002272438,  0.00000013281,  0.00001976934
1354397309224989,  0.00432527584, -0.00065880801,  0.00015747283,  0.00000243481,  0.00000064625, -0.00002063557,  0.00267402359,  0.00005018284,  0.00000024041,  0.00000072704, -0.00000850991,  0.01645842768,  0.00014714755,  0.00006785822,  0.00000516126,  0.00005254566,  0.00000670204,  0.00000069877,  0.00002405527,  0.00000023550,  0.00001974838